GW0290 Weather Reports


time (UTC)temp
F
wind
direction
speed
knots
gust
knots
rain 1hr
in
rain 24hr
in
rain mn
in
humidity
%
barometer
mb
20260901063519 76 0 0.0 0.9 0.00 0.00 0.00 89 1019.4
20260901063034 76 0 0.0 0.9 0.00 0.00 0.00 89 1019.5
20260901062518 76 0 0.0 1.7 0.00 0.00 0.00 89 1019.5
20260901062019 76 0 0.0 1.7 0.00 0.00 0.00 89 1019.5
20260901061538 76 0 0.0 0.9 0.00 0.00 0.00 89 1019.5
20260901061021 76 0 0.0 0.9 0.00 0.00 0.00 89 1019.5
20260901060521 76 0 0.0 0.9 0.00 0.00 0.00 89 1019.6
20260901060035 76 0 0.0 0.9 0.00 0.00 0.00 89 1019.6
20260901055521 76 0 0.0 2.6 0.00 0.00 0.00 88 1019.6
20260901055020 76 0 0.0 2.6 0.00 0.00 0.00 89 1019.6
20260901054538 76 177 0.9 2.6 0.00 0.00 0.00 89 1019.7
20260901054018 76 190 0.9 2.6 0.00 0.00 0.00 89 1019.8
20260901053519 76 184 0.9 2.6 0.00 0.00 0.00 89 1019.8
20260901053054 76 0 0.0 2.6 0.00 0.00 0.00 89 1019.8
20260901052516 76 171 0.0 3.5 0.00 0.00 0.00 88 1019.8
20260901052016 76 0 0.0 3.5 0.00 0.00 0.00 88 1019.8
20260901051548 76 188 0.0 1.7 0.00 0.00 0.00 88 1019.9
20260901051019 76 0 0.0 3.5 0.00 0.00 0.00 88 1019.9
20260901050520 75 0 0.0 3.5 0.00 0.00 0.00 88 1019.9
20260901050036 75 173 0.0 3.5 0.00 0.00 0.00 88 1019.8
20260901045519 75 0 0.0 0.0 0.00 0.00 0.00 88 1019.8
20260901045018 75 0 0.0 0.0 0.00 0.00 0.00 88 1019.7
20260901044542 75 0 0.0 0.0 0.00 0.00 0.00 88 1019.7
20260901044019 75 0 0.0 0.0 0.00 0.00 0.00 88 1019.7
20260901043519 75 0 0.0 0.0 0.00 0.00 0.00 88 1019.7
20260901043036 75 0 0.0 0.0 0.00 0.00 0.00 87 1019.7
20260901042518 76 0 0.0 0.0 0.00 0.00 0.00 87 1019.6
20260901042020 76 0 0.0 0.0 0.00 0.00 0.00 87 1019.6
20260901041538 76 0 0.0 0.0 0.00 0.00 0.00 87 1019.6
20260901041020 76 0 0.0 0.0 0.00 0.00 0.00 87 1019.6
20260901040518 76 0 0.0 0.0 0.00 0.00 0.00 87 1019.5
20260901040044 76 0 0.0 0.0 0.00 0.00 0.00 87 1019.5
20260901035520 76 0 0.0 0.0 0.00 0.00 0.00 87 1019.4
20260901035019 76 0 0.0 0.0 0.00 0.00 0.00 87 1019.4
20260901034533 76 0 0.0 0.0 0.00 0.00 0.00 86 1019.4
20260901034018 76 0 0.0 0.0 0.00 0.00 0.00 86 1019.4
20260901033518 76 0 0.0 0.0 0.00 0.00 0.00 86 1019.5
20260901033036 76 0 0.0 0.0 0.00 0.00 0.00 86 1019.5
20260901032519 76 0 0.0 0.0 0.00 0.00 0.00 85 1019.4
20260901032017 76 0 0.0 0.0 0.00 0.00 0.00 85 1019.4
20260901031534 76 0 0.0 0.0 0.00 0.00 0.00 85 1019.5
20260901031020 76 0 0.0 0.0 0.00 0.00 0.00 85 1019.4
20260901030515 76 0 0.0 0.0 0.00 0.00 0.00 84 1019.4
20260901030033 76 0 0.0 0.0 0.00 0.00 0.00 84 1019.3
20260901025517 77 0 0.0 0.0 0.00 0.00 0.00 84 1019.4
20260901025020 77 0 0.0 0.0 0.00 0.00 0.00 84 1019.4
20260901024534 77 0 0.0 0.0 0.00 0.00 0.00 84 1019.4
20260901024021 77 0 0.0 0.0 0.00 0.00 0.00 84 1019.3
20260901023516 77 0 0.0 0.0 0.00 0.00 0.00 83 1019.3
20260901023048 77 0 0.0 0.0 0.00 0.00 0.00 83 1019.4
20260901022518 78 0 0.0 0.0 0.00 0.00 0.00 83 1019.3
20260901022018 78 0 0.0 0.0 0.00 0.00 0.00 83 1019.3
20260901021535 78 0 0.0 0.0 0.00 0.00 0.00 82 1019.3
20260901021020 78 0 0.0 0.0 0.00 0.00 0.00 82 1019.3
20260901020518 78 0 0.0 0.0 0.00 0.00 0.00 82 1019.4
20260901020043 78 0 0.0 0.0 0.00 0.00 0.00 81 1019.4
20260901015522 78 0 0.0 0.0 0.00 0.00 0.00 81 1019.4
20260901015023 79 0 0.0 0.0 0.00 0.00 0.00 81 1019.4
20260901014549 79 0 0.0 0.0 0.00 0.00 0.00 80 1019.3
20260901014021 79 0 0.0 0.0 0.00 0.00 0.00 80 1019.2
20260901013518 79 0 0.0 0.0 0.00 0.00 0.00 80 1019.2
20260901013035 79 0 0.0 0.0 0.00 0.00 0.00 79 1019.0
20260901012519 80 0 0.0 0.0 0.00 0.00 0.00 79 1019.1
20260901012018 80 0 0.0 0.0 0.00 0.00 0.00 79 1018.9
20260901011536 80 0 0.0 0.0 0.00 0.00 0.00 78 1018.9
20260901011020 81 0 0.0 0.0 0.00 0.00 0.00 78 1018.7
20260901010517 81 0 0.0 0.0 0.00 0.00 0.00 77 1018.7
20260901010034 81 0 0.0 0.0 0.00 0.00 0.00 77 1018.7
20260901005523 82 0 0.0 0.0 0.00 0.00 0.00 77 1018.6
20260901005025 82 0 0.0 0.0 0.00 0.00 0.00 76 1018.6
20260901004541 82 0 0.0 0.0 0.00 0.00 0.00 75 1018.6
20260901004020 83 0 0.0 0.0 0.00 0.00 0.00 74 1018.5
20260901003520 83 0 0.0 0.0 0.00 0.00 0.00 74 1018.5
20260901003037 83 0 0.0 0.0 0.00 0.00 0.00 74 1018.5
20260901002521 84 0 0.0 0.0 0.00 0.00 0.00 73 1018.4
20260901002022 84 0 0.0 0.0 0.00 0.00 0.00 72 1018.4
20260901001537 84 0 0.0 0.0 0.00 0.00 0.00 72 1018.5
20260901001023 84 0 0.0 0.0 0.00 0.00 0.00 72 1018.4
20260901000518 84 0 0.0 0.0 0.00 0.00 0.00 71 1018.3
20260901000036 85 0 0.0 0.0 0.00 0.00 0.00 71 1018.2
20260831235520 85 0 0.0 0.0 0.00 0.00 0.00 70 1018.3
20260831235018 85 0 0.0 0.0 0.00 0.00 0.00 69 1018.2
20260831234537 85 0 0.0 0.0 0.00 0.00 0.00 69 1018.2
20260831234017 85 0 0.0 0.0 0.00 0.00 0.00 69 1018.3
20260831233519 86 0 0.0 0.0 0.00 0.00 0.00 69 1018.3
20260831233037 86 0 0.0 0.0 0.00 0.00 0.00 69 1018.2
20260831232521 86 0 0.0 0.0 0.00 0.00 0.00 68 1018.2
20260831232020 86 0 0.0 0.0 0.00 0.00 0.00 67 1018.1
20260831231537 86 0 0.0 0.0 0.00 0.00 0.00 67 1018.3
20260831231020 87 0 0.0 0.0 0.00 0.00 0.00 66 1018.2
20260831230521 87 0 0.0 0.0 0.00 0.00 0.00 65 1018.2
20260831230038 87 0 0.0 0.0 0.00 0.00 0.00 65 1018.2
20260831225517 88 0 0.0 0.0 0.00 0.00 0.00 64 1018.2
20260831225019 88 0 0.0 0.0 0.00 0.00 0.00 64 1018.2
20260831224534 88 0 0.0 0.0 0.00 0.00 0.00 63 1018.1
20260831224021 89 0 0.0 0.0 0.00 0.00 0.00 63 1018.2
20260831223521 89 0 0.0 0.0 0.00 0.00 0.00 63 1018.2
20260831223036 89 0 0.0 0.0 0.00 0.00 0.00 60 1018.2
20260831222519 90 0 0.0 0.0 0.00 0.00 0.00 63 1018.2
20260831222020 90 0 0.0 0.0 0.00 0.00 0.00 61 1018.2
20260831221535 90 0 0.0 0.0 0.00 0.00 0.00 57 1018.2
20260831221020 90 0 0.0 0.0 0.00 0.00 0.00 59 1018.1
20260831220520 91 0 0.0 0.0 0.00 0.00 0.00 57 1018.1
20260831220036 91 0 0.0 2.6 0.00 0.00 0.00 57 1018.1
20260831215519 91 0 0.0 2.6 0.00 0.00 0.00 57 1018.2
20260831215017 91 0 0.0 2.6 0.00 0.00 0.00 56 1018.3
20260831214537 91 0 0.0 0.0 0.00 0.00 0.00 55 1018.3
20260831214026 92 0 0.0 0.0 0.00 0.00 0.00 57 1018.3
20260831213518 92 0 0.0 0.0 0.00 0.00 0.00 56 1018.4
20260831213035 92 0 0.0 0.0 0.00 0.00 0.00 54 1018.4
20260831212520 92 0 0.0 0.0 0.00 0.00 0.00 53 1018.4
20260831212020 92 0 0.0 0.0 0.00 0.00 0.00 52 1018.4
20260831211539 92 0 0.0 0.0 0.00 0.00 0.00 53 1018.5
20260831211019 92 0 0.0 0.0 0.00 0.00 0.00 53 1018.5
20260831210518 93 0 0.0 0.0 0.00 0.00 0.00 52 1018.4
20260831210033 93 0 0.0 0.0 0.00 0.00 0.00 50 1018.5
20260831205523 93 0 0.0 0.0 0.00 0.00 0.00 48 1018.6
20260831205021 93 0 0.0 0.0 0.00 0.00 0.00 47 1018.6
20260831204538 93 0 0.0 0.0 0.00 0.00 0.00 50 1018.6
20260831204018 93 0 0.0 0.0 0.00 0.00 0.00 47 1018.6
20260831203519 93 0 0.0 0.0 0.00 0.00 0.00 48 1018.7
20260831203038 94 0 0.0 0.0 0.00 0.00 0.00 47 1018.7
20260831202517 94 0 0.0 0.0 0.00 0.00 0.00 51 1018.7
20260831202019 94 0 0.0 0.0 0.00 0.00 0.00 48 1018.8
20260831201537 93 0 0.0 0.0 0.00 0.00 0.00 46 1018.8
20260831201016 93 0 0.0 0.0 0.00 0.00 0.00 48 1018.8
20260831200516 93 0 0.0 0.0 0.00 0.00 0.00 48 1018.8
20260831200042 93 0 0.0 0.0 0.00 0.00 0.00 47 1018.8
20260831195517 93 0 0.0 0.0 0.00 0.00 0.00 46 1018.8
20260831195023 94 0 0.0 0.0 0.00 0.00 0.00 42 1018.9
20260831194535 94 0 0.0 0.0 0.00 0.00 0.00 45 1019.0
20260831194023 94 0 0.0 0.0 0.00 0.00 0.00 42 1019.1
20260831193522 94 0 0.0 0.0 0.00 0.00 0.00 44 1019.2
20260831193042 94 0 0.0 0.0 0.00 0.00 0.00 43 1019.2
20260831192517 94 0 0.0 0.0 0.00 0.00 0.00 40 1019.2
20260831192022 93 0 0.0 0.0 0.00 0.00 0.00 47 1019.3
20260831191536 94 0 0.0 0.0 0.00 0.00 0.00 47 1019.4
20260831191016 94 0 0.0 0.0 0.00 0.00 0.00 50 1019.5
20260831190518 94 0 0.0 0.0 0.00 0.00 0.00 47 1019.6
20260831190041 94 0 0.0 0.0 0.00 0.00 0.00 46 1019.6
20260831185519 93 0 0.0 0.0 0.00 0.00 0.00 49 1019.7
20260831185024 93 0 0.0 0.0 0.00 0.00 0.00 48 1019.8
20260831184533 92 0 0.0 0.0 0.00 0.00 0.00 47 1019.8
20260831184021 94 0 0.0 0.0 0.00 0.00 0.00 45 1019.9
20260831183523 94 0 0.0 0.0 0.00 0.00 0.00 49 1019.9
20260831183038 93 0 0.0 0.0 0.00 0.00 0.00 51 1019.9
20260831182516 93 0 0.0 0.0 0.00 0.00 0.00 55 1019.9
20260831182021 93 0 0.0 0.0 0.00 0.00 0.00 55 1020.0
20260831181535 91 0 0.0 0.0 0.00 0.00 0.00 54 1020.0
20260831181020 91 0 0.0 0.0 0.00 0.00 0.00 53 1020.0
20260831180520 93 0 0.0 0.0 0.00 0.00 0.00 52 1020.1
20260831180045 92 0 0.0 0.0 0.00 0.00 0.00 57 1020.0
20260831175520 92 0 0.0 0.0 0.00 0.00 0.00 56 1020.1
20260831175017 92 0 0.0 0.0 0.00 0.00 0.00 59 1020.1
20260831174543 92 0 0.0 0.0 0.00 0.00 0.00 57 1020.2
20260831174025 93 0 0.0 0.0 0.00 0.00 0.00 58 1020.1
20260831173518 91 0 0.0 0.0 0.00 0.00 0.00 62 1020.2
20260831173038 90 0 0.0 0.0 0.00 0.00 0.00 61 1020.2
20260831172517 90 0 0.0 0.0 0.00 0.00 0.00 60 1020.2
20260831172020 90 0 0.0 0.0 0.00 0.00 0.00 60 1020.2
20260831171536 91 0 0.0 0.0 0.00 0.00 0.00 61 1020.2
20260831171018 89 0 0.0 0.0 0.00 0.00 0.00 63 1020.2
20260831170520 89 0 0.0 0.0 0.00 0.00 0.00 63 1020.3
20260831170033 89 0 0.0 0.0 0.00 0.00 0.00 64 1020.3
20260831165519 89 0 0.0 0.0 0.00 0.00 0.00 63 1020.4
20260831165023 89 0 0.0 0.0 0.00 0.00 0.00 63 1020.4
20260831164553 89 0 0.0 0.0 0.00 0.00 0.00 63 1020.5
20260831164020 90 0 0.0 0.0 0.00 0.00 0.00 66 1020.4
20260831163521 88 0 0.0 0.0 0.00 0.00 0.00 64 1020.4
20260831163039 87 0 0.0 0.0 0.00 0.00 0.00 67 1020.5
20260831162521 87 0 0.0 0.0 0.00 0.00 0.00 67 1020.6
20260831162022 88 0 0.0 0.0 0.00 0.00 0.00 67 1020.5
20260831161537 88 0 0.0 0.0 0.00 0.00 0.00 67 1020.6
20260831161018 88 0 0.0 0.0 0.00 0.00 0.00 68 1020.6
20260831160516 88 0 0.0 0.0 0.00 0.00 0.00 67 1020.6
20260831160043 88 0 0.0 0.0 0.00 0.00 0.00 69 1020.7
20260831155521 87 0 0.0 0.0 0.00 0.00 0.00 70 1020.7
20260831155021 87 0 0.0 0.0 0.00 0.00 0.00 70 1020.7
20260831154605 86 0 0.0 0.0 0.00 0.00 0.00 72 1020.8
20260831154028 87 0 0.0 0.0 0.00 0.00 0.00 70 1020.9
20260831153520 87 0 0.0 0.0 0.00 0.00 0.00 73 1021.0
20260831153037 86 0 0.0 0.0 0.00 0.00 0.00 72 1021.0
20260831152523 86 0 0.0 0.0 0.00 0.00 0.00 73 1021.1
20260831152016 86 0 0.0 0.0 0.00 0.00 0.00 73 1021.1
20260831151535 86 0 0.0 0.0 0.00 0.00 0.00 73 1021.0
20260831151016 85 0 0.0 0.0 0.00 0.00 0.00 75 1021.1
20260831150521 84 0 0.0 0.0 0.00 0.00 0.00 77 1021.1
20260831150042 84 0 0.0 0.0 0.00 0.00 0.00 75 1021.0
20260831145520 84 0 0.0 0.0 0.00 0.00 0.00 75 1021.1
20260831145017 84 0 0.0 0.0 0.00 0.00 0.00 77 1021.1
20260831144536 85 0 0.0 0.0 0.00 0.00 0.00 76 1021.0
20260831144018 85 0 0.0 0.0 0.00 0.00 0.00 78 1021.1
20260831143520 84 0 0.0 0.0 0.00 0.00 0.00 78 1021.0
20260831143038 83 0 0.0 0.0 0.00 0.00 0.00 78 1021.1
20260831142521 83 0 0.0 0.0 0.00 0.00 0.00 78 1021.0
20260831142021 83 0 0.0 0.0 0.00 0.00 0.00 78 1020.9
20260831141534 83 0 0.0 0.0 0.00 0.00 0.00 79 1020.9
20260831141020 83 0 0.0 0.0 0.00 0.00 0.00 79 1020.8
20260831140520 83 0 0.0 0.0 0.00 0.00 0.00 81 1020.8
20260831140035 82 0 0.0 0.0 0.00 0.00 0.00 82 1020.7
20260831135520 82 0 0.0 0.0 0.00 0.00 0.00 83 1020.6
20260831135021 81 0 0.0 0.0 0.00 0.00 0.00 84 1020.6
20260831134534 81 0 0.0 0.0 0.00 0.00 0.00 85 1020.7
20260831134018 81 0 0.0 0.0 0.00 0.00 0.00 87 1020.7
20260831133523 80 0 0.0 0.0 0.00 0.00 0.00 88 1020.6
20260831133036 80 0 0.0 0.0 0.00 0.00 0.00 91 1020.8
20260831132522 79 0 0.0 0.0 0.00 0.00 0.00 93 1020.7
20260831132020 78 0 0.0 0.0 0.00 0.00 0.00 94 1020.7
20260831131533 78 0 0.0 0.0 0.00 0.00 0.00 95 1020.7
20260831131020 77 0 0.0 0.0 0.00 0.00 0.00 96 1020.8
20260831130519 76 0 0.0 0.0 0.00 0.00 0.00 97 1020.7
20260831130036 76 0 0.0 0.0 0.00 0.00 0.00 98 1020.7
20260831125518 75 0 0.0 0.0 0.00 0.00 0.00 98 1020.8
20260831125016 75 0 0.0 0.0 0.00 0.00 0.00 98 1020.8
20260831124535 74 0 0.0 0.0 0.00 0.00 0.00 98 1020.8
20260831124020 73 0 0.0 0.0 0.00 0.00 0.00 98 1020.8
20260831123518 71 0 0.0 0.0 0.00 0.00 0.00 97 1020.8
20260831123037 71 0 0.0 0.0 0.00 0.00 0.00 97 1020.8
20260831122524 70 0 0.0 0.0 0.00 0.00 0.00 97 1020.8
20260831122020 70 0 0.0 0.0 0.00 0.00 0.00 97 1020.8
20260831121533 70 0 0.0 0.0 0.00 0.00 0.00 96 1020.8
20260831121016 69 0 0.0 0.0 0.00 0.00 0.00 96 1020.8
20260831120520 69 0 0.0 0.0 0.00 0.00 0.00 96 1020.8
20260831120041 69 0 0.0 0.0 0.00 0.00 0.00 96 1020.7
20260831115519 68 0 0.0 0.0 0.00 0.00 0.00 96 1020.7
20260831115020 68 0 0.0 0.0 0.00 0.00 0.00 96 1020.6
20260831114538 68 0 0.0 0.0 0.00 0.00 0.00 96 1020.6
20260831114020 68 0 0.0 0.0 0.00 0.00 0.00 96 1020.6
20260831113520 68 0 0.0 0.0 0.00 0.00 0.00 96 1020.6
20260831113037 68 0 0.0 0.0 0.00 0.00 0.00 95 1020.6
20260831112518 68 0 0.0 0.0 0.00 0.00 0.00 95 1020.6
20260831112018 68 0 0.0 0.0 0.00 0.00 0.00 95 1020.6
20260831111549 68 0 0.0 0.0 0.00 0.00 0.00 95 1020.7
20260831111018 68 0 0.0 0.0 0.00 0.00 0.00 95 1020.6
20260831110521 68 0 0.0 0.0 0.00 0.00 0.00 95 1020.6
20260831110045 68 0 0.0 0.0 0.00 0.00 0.00 95 1020.6
20260831105523 68 0 0.0 0.0 0.00 0.00 0.00 95 1020.6
20260831105021 68 0 0.0 0.0 0.00 0.00 0.00 95 1020.5
20260831104550 68 0 0.0 0.0 0.00 0.00 0.00 95 1020.5
20260831104026 68 0 0.0 0.0 0.00 0.00 0.00 95 1020.5
20260831103521 68 0 0.0 0.0 0.00 0.00 0.00 95 1020.4
20260831103039 68 0 0.0 0.0 0.00 0.00 0.00 95 1020.5
20260831102520 68 0 0.0 0.0 0.00 0.00 0.00 95 1020.4
20260831102018 68 0 0.0 0.0 0.00 0.00 0.00 95 1020.4
20260831101542 68 0 0.0 0.0 0.00 0.00 0.00 95 1020.3
20260831101019 68 0 0.0 0.0 0.00 0.00 0.00 95 1020.3
20260831100523 68 0 0.0 0.0 0.00 0.00 0.00 95 1020.3
20260831100045 68 0 0.0 0.0 0.00 0.00 0.00 95 1020.3
20260831095520 68 0 0.0 0.0 0.00 0.00 0.00 95 1020.2
20260831095020 68 0 0.0 0.0 0.00 0.00 0.00 95 1020.2
20260831094537 68 0 0.0 0.0 0.00 0.00 0.00 95 1020.2
20260831094020 68 0 0.0 0.0 0.00 0.00 0.00 95 1020.2
20260831093520 68 0 0.0 0.0 0.00 0.00 0.00 95 1020.1
20260831093047 68 0 0.0 0.0 0.00 0.00 0.00 95 1020.1
20260831092519 68 0 0.0 0.0 0.00 0.00 0.00 95 1020.2
20260831092017 68 0 0.0 0.0 0.00 0.00 0.00 95 1020.2
20260831091535 68 0 0.0 0.0 0.00 0.00 0.00 95 1020.1
20260831091018 68 0 0.0 0.0 0.00 0.00 0.00 95 1020.0
20260831090518 68 0 0.0 0.0 0.00 0.00 0.00 95 1020.0
20260831090040 68 0 0.0 0.0 0.00 0.00 0.00 95 1020.1
20260831085521 69 0 0.0 0.0 0.00 0.00 0.00 95 1020.1
20260831085020 69 0 0.0 0.0 0.00 0.00 0.00 95 1020.1
20260831084536 69 0 0.0 0.0 0.00 0.00 0.00 95 1020.1
20260831084020 69 0 0.0 0.0 0.00 0.00 0.00 95 1020.1
20260831083520 69 0 0.0 0.0 0.00 0.00 0.00 95 1020.1
20260831083036 69 0 0.0 0.0 0.00 0.00 0.00 95 1020.0
20260831082518 69 0 0.0 0.0 0.00 0.00 0.00 94 1020.0
20260831082018 69 0 0.0 0.0 0.00 0.00 0.00 95 1020.1
20260831081536 69 0 0.0 0.0 0.00 0.00 0.00 95 1020.0
20260831081016 69 0 0.0 0.0 0.00 0.00 0.00 95 1020.0
20260831080517 69 0 0.0 0.0 0.00 0.00 0.00 95 1020.1
20260831080037 69 0 0.0 0.0 0.00 0.00 0.00 94 1020.1
20260831075518 69 0 0.0 0.0 0.00 0.00 0.00 95 1020.0
20260831075020 69 0 0.0 0.0 0.00 0.00 0.00 94 1020.1
20260831074536 69 0 0.0 0.0 0.00 0.00 0.00 94 1020.1
20260831074020 69 0 0.0 0.0 0.00 0.00 0.00 94 1020.1
20260831073519 69 0 0.0 0.0 0.00 0.00 0.00 94 1020.2
20260831073037 70 0 0.0 0.0 0.00 0.00 0.00 94 1020.3
20260831072516 70 0 0.0 0.0 0.00 0.00 0.00 94 1020.3
20260831072018 70 0 0.0 0.0 0.00 0.00 0.00 94 1020.4
20260831071535 70 0 0.0 0.0 0.00 0.00 0.00 94 1020.4
20260831071018 70 0 0.0 0.0 0.00 0.00 0.00 94 1020.4
20260831070522 70 0 0.0 0.0 0.00 0.00 0.00 94 1020.4
20260831070039 70 0 0.0 0.0 0.00 0.00 0.00 94 1020.4
20260831065521 70 0 0.0 0.0 0.00 0.00 0.00 94 1020.4
20260831065020 70 0 0.0 0.0 0.00 0.00 0.00 94 1020.4
20260831064537 70 0 0.0 0.0 0.00 0.00 0.00 94 1020.5
20260831064018 70 0 0.0 0.0 0.00 0.00 0.00 94 1020.6